Munising, MI

12:37 AM EDT on May 27, 2018 (GMT -0400)
Munising

Weather History for KP53 - June, 2013

Change the Weather History Date:

Monday, June 10, 2013

  Actual Average (KISQ) Record (KISQ)
Temperature  
Mean Temperature 70 °F -  
Max Temperature 79 °F 67 °F 81 °F (1956)
Min Temperature 61 °F 45 °F 31 °F (1972)
Cooling Degree Days 4    
Growing Degree Days 20 (Base 50)    
Moisture  
Dew Point 53 °F    
Average Humidity 56    
Maximum Humidity 78    
Minimum Humidity 46    
Precipitation  
Precipitation 0.00 in - - ()
Sea Level Pressure  
Sea Level Pressure 29.85 in    
Wind  
Wind Speed 8 mph (SSE)    
Max Wind Speed 12 mph    
Max Gust Speed 18 mph    
Averages and records for this station are not official NWS values.
T = Trace of Precipitation, MM = Missing Value Source: NWS Daily Summary

Daily Weather History Graph

Daily Weather History Graph

Search for Another Location

Airport or City:

Astronomy

Jun. 10, 2013 Rise Set
Actual Time 5:54 AM EDT 9:38 PM EDT
Civil Twilight 5:15 AM EDT 10:17 PM EDT
Nautical Twilight 4:23 AM EDT 11:09 PM EDT
Astronomical Twilight 3:10 AM EDT 12:23 AM EDT
Moon 7:47 AM EDT (6/10) 10:58 PM EDT (6/10)
Length of Visible Light 17h 01m
Length of Day
15h 44m
Waxing Crescent, 4% of the Moon is Illuminated
Jun 10
Waxing Crescent
Jun 16
First Quarter
Jun 23
Full
Jun 30
Last Quarter
Jul 8
New

Hourly Weather History & Observations

Time (EDT) Temp. Dew Point Humidity Pressure Visibility Wind Dir Wind Speed Gust Speed Precip Events Conditions
12:56 AM 66.0 °F 50.0 °F 56% 29.96 in - SSE 6.9 mph - N/A   Unknown
1:56 AM 64.9 °F 48.9 °F 56% 29.94 in - SSE 6.9 mph - N/A   Unknown
2:56 AM 64.9 °F 48.9 °F 56% 29.93 in - SSE 8.1 mph - N/A   Unknown
3:56 AM 63.0 °F 48.0 °F 58% 29.91 in - SSE 8.1 mph - N/A   Unknown
4:56 AM 62.1 °F 48.0 °F 60% 29.89 in - SSE 10.4 mph - N/A   Unknown
5:56 AM 62.1 °F 46.9 °F 58% 29.89 in - South 8.1 mph - N/A   Unknown
6:56 AM 61.0 °F 46.9 °F 60% 29.88 in - South 6.9 mph - N/A   Unknown
7:56 AM 64.0 °F 48.9 °F 58% 29.88 in - SSE 5.8 mph - N/A   Unknown
8:56 AM 66.0 °F 51.1 °F 59% 29.87 in - Variable 5.8 mph - N/A   Unknown
9:56 AM 69.1 °F 52.0 °F 54% 29.86 in - South 10.4 mph 17.3 mph N/A   Unknown
10:56 AM 72.0 °F 53.1 °F 51% 29.85 in - SSE 9.2 mph - N/A   Unknown
11:56 AM 75.0 °F 55.9 °F 51% 29.84 in - South 11.5 mph 18.4 mph N/A   Unknown
12:56 PM 75.0 °F 55.9 °F 51% 29.84 in - SSE 8.1 mph 16.1 mph N/A   Unknown
1:56 PM 77.0 °F 57.9 °F 52% 29.82 in - SSE 8.1 mph 16.1 mph N/A   Unknown
2:56 PM 78.1 °F 57.9 °F 50% 29.81 in - SSE 11.5 mph 17.3 mph N/A   Unknown
3:56 PM 78.1 °F 55.9 °F 46% 29.80 in - SSE 10.4 mph - N/A   Unknown
4:56 PM 78.1 °F 57.0 °F 48% 29.80 in - South 6.9 mph - N/A   Unknown
5:56 PM 78.1 °F 57.0 °F 48% 29.79 in - SSE 10.4 mph 16.1 mph N/A   Unknown
6:56 PM 75.9 °F 57.9 °F 54% 29.80 in - SSE 4.6 mph - N/A   Unknown
7:56 PM 75.0 °F 57.0 °F 53% 29.80 in - SSE 8.1 mph - N/A   Unknown
8:56 PM 71.1 °F 57.0 °F 61% 29.81 in - South 5.8 mph - N/A   Unknown
9:56 PM 69.1 °F 57.0 °F 65% 29.82 in - South 5.8 mph - N/A   Unknown
10:56 PM 66.0 °F 57.0 °F 73% 29.83 in - South 5.8 mph - N/A   Unknown
11:56 PM 63.0 °F 55.9 °F 78% 29.83 in - South 3.5 mph - N/A   Unknown